ORBCOMM FM118 [+] (41183 NORAD) Tracking and Keplerian Element Data

This shows tracking and keplerian element data for the satellite.

Feedback or suggestion? Click here.




ElementValue
Catalog41183
NameORBCOMM FM118 [+]
Epoch Orbit15388
Epoch Day318.17618198
Epoch Year2018
RAAN86.4409
Inclination47.004
Eccentricity0.0001032
Argument of Perigee305.2336
Mean Anonmoly54.8452
Mean Motion14.54745783
Decay Rate-1.02E-06
L11 41183U 15081E 18318.17618198 -.00000102 00000-0 14718-4 0 9993
L22 41183 47.0040 86.4409 0001032 305.2336 54.8452 14.54745783153884

Live tracking and technical data element details for ORBCOMM FM118 [+] (NORAD 41183). ORBCOMM FM118 [+] can be tracked NOW for your location showing map with azimuth and elevation plus other details from your city location.

Track the satellite on the map from your city or location and see movement details for azimuth, elevation, latitude, longitude, range, height, and movement on the map or in text.







IsCatalogInMostPopularTable: catalog: 41183, numindb: 102
Update: records affected: 1



GetName: 41183 ORBCOMM FM118 [+]

Hit Count: updated at: Fri, 16 Nov 2018 05:59:30 GMT